{"data":{"norad_id":54060,"epoch":"2026-09-20T04:44:50.612064Z","epoch_age_seconds":112556,"freshness":"FRESH","line1":"1 54060U 22136K   26263.19780801  .00001726  00000+0  12656-3 0  9990","line2":"2 54060  53.1599 159.9365 0001438  79.4429 280.6725 15.08818177216632","mean_motion":15.08818177,"eccentricity":0.0001438,"inclination_deg":53.1599,"raan_deg":159.9365,"arg_perigee_deg":79.4429,"mean_anomaly_deg":280.6725,"bstar":0.00012656,"rev_number":21663,"period_min":95.438935052013,"perigee_km":538.81529315655,"apogee_km":540.80489474077,"semimajor_km":6917.9470939487,"source":"CELESTRAK","updated_at":"2026-09-21T09:00:33.077364Z"}}